CPA585 ZBAA-VHHH

Flight info

Callsign CPA585
Flight time 2h 47m
Altitude 36100
Route RUSDO9Z RUSDO W45 IPLEV/K0898S1130 B458 DADGA/K0906S1100 W37 NODIM/K0906S1160 W37 GUSIV/K0913S1130 W37 PEXID/K0907S1160 W37 OMBEB/K0913S1130 R473 NNX/K0904S1160 R473 WYN W18 NLG W23 ZUH R473 SIERA
Aircraft B77W/H-SDE1E2E3FGHIJ2J3J4J5M1RWXY/LB1D1

Departure

Time 2026-05-07 15:46
Airport Beijing Capital International Airport (ZBAA)

Arrival

Time 2026-05-07 18:33
Airport Hong Kong International Airport (VHHH)
Time Latitude Longitude Altitude Speed Heading
2026-05-07 14:55 40.07536 116.60775 123 ft 0 kts 278°
2026-05-07 15:31 40.07536 116.60779 131 ft 3 kts 278°
2026-05-07 15:31 40.07532 116.60814 125 ft 4 kts 278°
2026-05-07 15:31 40.07528 116.60848 124 ft 3 kts 278°
2026-05-07 15:32 40.07528 116.60876 123 ft 4 kts 237°
2026-05-07 15:32 40.07547 116.60892 123 ft 4 kts 188°
2026-05-07 15:32 40.07565 116.60894 124 ft 0 kts 186°
2026-05-07 15:36 40.07549 116.60892 123 ft 5 kts 186°
2026-05-07 15:36 40.07502 116.60891 122 ft 9 kts 176°
2026-05-07 15:36 40.07426 116.60902 124 ft 13 kts 173°
2026-05-07 15:36 40.07324 116.60918 124 ft 17 kts 173°
2026-05-07 15:37 40.07208 116.60937 124 ft 17 kts 173°
2026-05-07 15:37 40.07092 116.60956 126 ft 17 kts 173°
2026-05-07 15:37 40.06999 116.60971 126 ft 11 kts 173°
2026-05-07 15:37 40.06934 116.60929 126 ft 11 kts 243°
2026-05-07 15:38 40.06921 116.60827 125 ft 11 kts 262°
2026-05-07 15:38 40.06911 116.60721 124 ft 12 kts 263°
2026-05-07 15:38 40.06899 116.60594 125 ft 17 kts 263°
2026-05-07 15:38 40.06872 116.60455 128 ft 15 kts 223°
2026-05-07 15:39 40.06768 116.60440 125 ft 15 kts 175°
2026-05-07 15:39 40.06662 116.60456 126 ft 15 kts 174°
2026-05-07 15:39 40.06556 116.60472 125 ft 15 kts 173°
2026-05-07 15:39 40.06449 116.60488 126 ft 15 kts 173°
2026-05-07 15:40 40.06344 116.60505 126 ft 14 kts 172°
2026-05-07 15:40 40.06292 116.60451 126 ft 10 kts 251°
2026-05-07 15:40 40.06277 116.60361 124 ft 10 kts 261°
2026-05-07 15:40 40.06267 116.60270 126 ft 10 kts 263°
2026-05-07 15:41 40.06255 116.60180 127 ft 10 kts 242°
2026-05-07 15:41 40.06189 116.60154 126 ft 10 kts 178°
2026-05-07 15:41 40.06118 116.60164 126 ft 10 kts 172°
2026-05-07 15:41 40.06047 116.60176 126 ft 10 kts 173°
2026-05-07 15:42 40.05958 116.60190 126 ft 15 kts 174°
2026-05-07 15:42 40.05856 116.60204 126 ft 15 kts 174°
2026-05-07 15:42 40.05754 116.60220 126 ft 15 kts 172°
2026-05-07 15:42 40.05679 116.60233 126 ft 9 kts 180°
2026-05-07 15:43 40.05642 116.60182 125 ft 5 kts 251°
2026-05-07 15:43 40.05641 116.60178 125 ft 0 kts 253°
2026-05-07 15:44 40.05641 116.60176 124 ft 2 kts 253°
2026-05-07 15:44 40.05630 116.60121 128 ft 9 kts 261°
2026-05-07 15:44 40.05631 116.60043 125 ft 9 kts 284°
2026-05-07 15:45 40.05674 116.59994 124 ft 9 kts 349°
2026-05-07 15:45 40.05734 116.59982 126 ft 9 kts 351°
2026-05-07 15:45 40.05899 116.59955 126 ft 51 kts 354°
2026-05-07 15:45 40.06523 116.59859 126 ft 129 kts 353°
2026-05-07 15:46 40.08945 116.59433 749 ft 192 kts 352°
2026-05-07 15:46 40.10280 116.59191 1517 ft 195 kts 351°
2026-05-07 15:46 40.11602 116.58875 2372 ft 191 kts 348°
2026-05-07 15:47 40.12956 116.58546 2842 ft 210 kts 351°
2026-05-07 15:47 40.14489 116.58235 3216 ft 231 kts 351°
2026-05-07 15:47 40.16110 116.57914 3925 ft 239 kts 351°
2026-05-07 15:47 40.17731 116.57403 4552 ft 245 kts 331°
2026-05-07 15:48 40.18900 116.55773 5210 ft 254 kts 295°
2026-05-07 15:48 40.19487 116.53603 5874 ft 260 kts 291°
2026-05-07 15:48 40.20156 116.51351 6738 ft 262 kts 294°
2026-05-07 15:48 40.20844 116.49179 7632 ft 262 kts 294°
2026-05-07 15:49 40.21555 116.46970 8474 ft 265 kts 295°
2026-05-07 15:49 40.22275 116.44733 9300 ft 267 kts 294°
2026-05-07 15:49 40.22675 116.42344 9924 ft 275 kts 274°
2026-05-07 15:49 40.22655 116.39789 10395 ft 290 kts 272°
2026-05-07 15:50 40.22639 116.37030 10602 ft 316 kts 273°
2026-05-07 15:50 40.22631 116.34027 10811 ft 342 kts 273°
2026-05-07 15:50 40.22626 116.30834 11308 ft 357 kts 273°
2026-05-07 15:50 40.22622 116.27537 12130 ft 365 kts 273°
2026-05-07 15:51 40.22620 116.24233 13178 ft 368 kts 273°
2026-05-07 15:51 40.22618 116.20852 13922 ft 374 kts 274°
2026-05-07 15:51 40.22618 116.17434 13950 ft 376 kts 274°
2026-05-07 15:51 40.22617 116.14021 13959 ft 375 kts 274°
2026-05-07 15:52 40.22616 116.10599 13968 ft 374 kts 274°
2026-05-07 15:52 40.22615 116.07199 13967 ft 374 kts 273°
2026-05-07 15:52 40.22611 116.03791 13960 ft 374 kts 274°
2026-05-07 15:52 40.22610 116.00388 13982 ft 374 kts 274°
2026-05-07 15:53 40.22607 115.96987 13985 ft 375 kts 273°
2026-05-07 15:53 40.22601 115.93571 13962 ft 375 kts 273°
2026-05-07 15:53 40.22570 115.90167 13957 ft 371 kts 269°
2026-05-07 15:53 40.21931 115.86877 13990 ft 383 kts 248°
2026-05-07 15:54 40.20431 115.83987 14361 ft 397 kts 231°
2026-05-07 15:54 40.18292 115.81631 15324 ft 407 kts 218°
2026-05-07 15:54 40.15915 115.79598 16306 ft 409 kts 217°
2026-05-07 15:54 40.13516 115.77543 17187 ft 415 kts 217°
2026-05-07 15:55 40.11089 115.75442 18014 ft 421 kts 218°
2026-05-07 15:55 40.08645 115.73301 18702 ft 427 kts 218°
2026-05-07 15:55 40.06168 115.71124 19459 ft 431 kts 219°
2026-05-07 15:55 40.03660 115.68923 20217 ft 436 kts 219°
2026-05-07 15:56 40.01149 115.66716 20932 ft 442 kts 220°
2026-05-07 15:56 39.98582 115.64452 21596 ft 448 kts 220°
2026-05-07 15:56 39.95985 115.62165 22309 ft 453 kts 220°
2026-05-07 15:56 39.93356 115.59851 22983 ft 458 kts 221°
2026-05-07 15:57 39.90689 115.57510 23613 ft 465 kts 221°
2026-05-07 15:57 39.87997 115.55146 24193 ft 469 kts 221°
2026-05-07 15:57 39.85287 115.52770 24851 ft 470 kts 221°
2026-05-07 15:57 39.82556 115.50391 25459 ft 473 kts 221°
2026-05-07 15:58 39.79800 115.47998 25961 ft 478 kts 221°
2026-05-07 15:58 39.77086 115.45516 26404 ft 474 kts 228°
2026-05-07 15:58 39.74965 115.42405 26794 ft 458 kts 247°
2026-05-07 15:58 39.73595 115.38749 27250 ft 449 kts 254°
2026-05-07 15:59 39.72252 115.35048 27726 ft 454 kts 252°
2026-05-07 15:59 39.70837 115.31366 28254 ft 456 kts 251°
2026-05-07 15:59 39.69387 115.27687 28721 ft 459 kts 250°
2026-05-07 15:59 39.67910 115.23992 29186 ft 463 kts 250°
2026-05-07 16:00 39.66420 115.20281 29650 ft 465 kts 250°
2026-05-07 16:00 39.64920 115.16538 30111 ft 468 kts 250°
2026-05-07 16:00 39.63417 115.12782 30549 ft 468 kts 250°
2026-05-07 16:00 39.61917 115.09036 31083 ft 465 kts 250°
2026-05-07 16:01 39.60455 115.05385 31766 ft 458 kts 250°
2026-05-07 16:01 39.58998 115.01745 32481 ft 450 kts 250°
2026-05-07 16:01 39.57558 114.98153 32955 ft 448 kts 250°
2026-05-07 16:01 39.56121 114.94558 33297 ft 449 kts 250°
2026-05-07 16:02 39.54684 114.90964 33740 ft 448 kts 250°
2026-05-07 16:02 39.53251 114.87390 34276 ft 444 kts 250°
2026-05-07 16:02 39.51828 114.83849 34694 ft 442 kts 250°
2026-05-07 16:02 39.50410 114.80319 35030 ft 441 kts 250°
2026-05-07 16:03 39.48992 114.76794 35323 ft 441 kts 250°
2026-05-07 16:03 39.47572 114.73271 35650 ft 441 kts 250°
2026-05-07 16:03 39.46159 114.69774 36130 ft 435 kts 250°
2026-05-07 16:04 39.43339 114.62795 36231 ft 438 kts 250°
2026-05-07 16:04 39.40529 114.55859 36228 ft 432 kts 250°
2026-05-07 16:05 39.37752 114.49028 36244 ft 431 kts 250°
2026-05-07 16:05 39.34851 114.42240 36236 ft 437 kts 242°
2026-05-07 16:05 39.32688 114.39376 36241 ft 456 kts 226°
2026-05-07 16:06 39.29886 114.37270 36213 ft 476 kts 212°
2026-05-07 16:06 39.26682 114.35948 36235 ft 492 kts 201°
2026-05-07 16:06 39.23212 114.35493 36246 ft 514 kts 185°
2026-05-07 16:06 39.19628 114.36287 36253 ft 530 kts 173°
2026-05-07 16:07 39.16056 114.37501 36223 ft 530 kts 174°
2026-05-07 16:07 39.08868 114.39447 36201 ft 524 kts 178°
2026-05-07 16:08 39.01747 114.41146 36178 ft 522 kts 178°
2026-05-07 16:08 38.94612 114.42999 36218 ft 523 kts 177°
2026-05-07 16:09 38.87469 114.44847 36195 ft 524 kts 178°
2026-05-07 16:09 38.80301 114.46669 36194 ft 525 kts 178°
2026-05-07 16:10 38.73128 114.48478 36180 ft 525 kts 178°
2026-05-07 16:10 38.65940 114.50287 36156 ft 526 kts 179°
2026-05-07 16:11 38.58741 114.52089 36170 ft 528 kts 179°
2026-05-07 16:11 38.51532 114.53943 36165 ft 529 kts 178°
2026-05-07 16:12 38.44316 114.55799 36162 ft 528 kts 179°
2026-05-07 16:12 38.37097 114.57465 36160 ft 526 kts 180°
2026-05-07 16:13 38.29933 114.59026 36158 ft 526 kts 180°
2026-05-07 16:13 38.22719 114.60615 36114 ft 526 kts 181°
2026-05-07 16:14 38.15519 114.62224 36156 ft 525 kts 181°
2026-05-07 16:14 38.08312 114.63835 36164 ft 526 kts 181°
2026-05-07 16:15 38.02322 114.65171 36164 ft 526 kts 181°
2026-05-07 16:15 37.95118 114.66776 36170 ft 525 kts 182°
2026-05-07 16:16 37.87894 114.68379 36179 ft 526 kts 182°
2026-05-07 16:16 37.80682 114.69977 36172 ft 526 kts 182°
2026-05-07 16:17 37.73526 114.71562 36169 ft 524 kts 182°
2026-05-07 16:17 37.66350 114.73147 36172 ft 523 kts 182°
2026-05-07 16:18 37.59188 114.74724 36178 ft 521 kts 182°
2026-05-07 16:18 37.52048 114.76294 36170 ft 520 kts 182°
2026-05-07 16:19 37.44934 114.77842 36179 ft 518 kts 182°
2026-05-07 16:19 37.37836 114.79359 36183 ft 517 kts 182°
2026-05-07 16:20 37.30752 114.80874 36143 ft 516 kts 182°
2026-05-07 16:20 37.23692 114.82432 36173 ft 514 kts 181°
2026-05-07 16:21 37.16659 114.84087 36186 ft 514 kts 181°
2026-05-07 16:21 37.09683 114.85735 36187 ft 513 kts 181°
2026-05-07 16:22 37.02674 114.87371 36190 ft 511 kts 180°
2026-05-07 16:22 36.95691 114.88990 36194 ft 510 kts 181°
2026-05-07 16:23 36.88709 114.90603 36196 ft 509 kts 181°
2026-05-07 16:23 36.81790 114.92200 36189 ft 507 kts 180°
2026-05-07 16:24 36.74836 114.93806 36198 ft 507 kts 180°
2026-05-07 16:24 36.67905 114.95401 36202 ft 506 kts 180°
2026-05-07 16:25 36.60975 114.96993 36173 ft 506 kts 180°
2026-05-07 16:25 36.54050 114.98582 36201 ft 505 kts 180°
2026-05-07 16:26 36.47135 115.00165 36205 ft 505 kts 180°
2026-05-07 16:26 36.40222 115.01744 36202 ft 505 kts 180°
2026-05-07 16:27 36.33360 115.02545 36201 ft 488 kts 191°
2026-05-07 16:27 36.26689 115.01966 36210 ft 479 kts 196°
2026-05-07 16:28 36.20039 115.01218 36206 ft 481 kts 196°
2026-05-07 16:28 36.13394 115.00511 36205 ft 482 kts 195°
2026-05-07 16:29 36.06692 114.99824 36209 ft 483 kts 195°
2026-05-07 16:29 35.99988 114.99144 36226 ft 482 kts 195°
2026-05-07 16:30 35.93336 114.98470 36289 ft 481 kts 195°
2026-05-07 16:30 35.86663 114.97789 36311 ft 482 kts 195°
2026-05-07 16:31 35.79954 114.97104 36316 ft 484 kts 195°
2026-05-07 16:31 35.73224 114.96420 36314 ft 486 kts 195°
2026-05-07 16:32 35.66530 114.95742 36310 ft 486 kts 195°
2026-05-07 16:32 35.59781 114.95060 36316 ft 487 kts 195°
2026-05-07 16:33 35.53013 114.94378 36318 ft 487 kts 195°
2026-05-07 16:33 35.46260 114.93698 36312 ft 486 kts 195°
2026-05-07 16:34 35.39515 114.93020 36315 ft 486 kts 195°
2026-05-07 16:34 35.32773 114.92342 36320 ft 485 kts 195°
2026-05-07 16:35 35.26041 114.91667 36295 ft 485 kts 195°
2026-05-07 16:35 35.19323 114.90995 36313 ft 484 kts 195°
2026-05-07 16:36 35.12655 114.90328 36323 ft 483 kts 195°
2026-05-07 16:36 35.05947 114.89658 36320 ft 483 kts 195°
2026-05-07 16:37 34.99246 114.88990 36321 ft 482 kts 195°
2026-05-07 16:37 34.92557 114.88324 36321 ft 482 kts 195°
2026-05-07 16:38 34.85855 114.87658 36326 ft 483 kts 195°
2026-05-07 16:38 34.79157 114.86994 36313 ft 482 kts 195°
2026-05-07 16:39 34.72463 114.86332 36324 ft 483 kts 195°
2026-05-07 16:39 34.65807 114.85673 36324 ft 483 kts 195°
2026-05-07 16:40 34.59102 114.85011 36280 ft 483 kts 195°
2026-05-07 16:40 34.52404 114.84353 36315 ft 482 kts 195°
2026-05-07 16:41 34.45712 114.83694 36318 ft 482 kts 195°
2026-05-07 16:41 34.39016 114.83036 36321 ft 482 kts 195°
2026-05-07 16:42 34.32360 114.82384 36315 ft 482 kts 195°
2026-05-07 16:42 34.25678 114.81729 36317 ft 482 kts 195°
2026-05-07 16:43 34.18986 114.81075 36320 ft 482 kts 195°
2026-05-07 16:43 34.12298 114.80431 36273 ft 482 kts 195°
2026-05-07 16:44 34.05619 114.79805 36308 ft 481 kts 195°
2026-05-07 16:44 33.98943 114.79178 36316 ft 481 kts 195°
2026-05-07 16:45 33.92267 114.78549 36315 ft 481 kts 195°
2026-05-07 16:45 33.85637 114.77926 36315 ft 481 kts 195°
2026-05-07 16:46 33.78965 114.77272 36311 ft 480 kts 195°
2026-05-07 16:46 33.72304 114.76591 36311 ft 480 kts 195°
2026-05-07 16:47 33.65621 114.75959 36282 ft 481 kts 194°
2026-05-07 16:47 33.58937 114.75377 36306 ft 480 kts 195°
2026-05-07 16:48 33.52329 114.74665 36308 ft 479 kts 195°
2026-05-07 16:48 33.45683 114.73936 36303 ft 480 kts 195°
2026-05-07 16:49 33.39019 114.73314 36296 ft 481 kts 194°
2026-05-07 16:49 33.32347 114.72704 36299 ft 481 kts 194°
2026-05-07 16:50 33.25668 114.72077 36297 ft 481 kts 194°
2026-05-07 16:50 33.18990 114.71446 36297 ft 481 kts 194°
2026-05-07 16:51 33.12313 114.70783 36291 ft 481 kts 194°
2026-05-07 16:51 33.05640 114.70112 36291 ft 481 kts 194°
2026-05-07 16:52 32.99007 114.69451 36290 ft 481 kts 194°
2026-05-07 16:52 32.92313 114.68788 36266 ft 481 kts 194°
2026-05-07 16:53 32.85636 114.68132 36280 ft 482 kts 193°
2026-05-07 16:53 32.78980 114.67506 36285 ft 482 kts 193°
2026-05-07 16:54 32.72287 114.66882 36283 ft 482 kts 193°
2026-05-07 16:54 32.65591 114.66255 36276 ft 482 kts 193°
2026-05-07 16:55 32.58892 114.65626 36280 ft 483 kts 193°
2026-05-07 16:55 32.52184 114.64997 36281 ft 484 kts 193°
2026-05-07 16:56 32.45463 114.64369 36246 ft 485 kts 193°
2026-05-07 16:56 32.35380 114.63423 36270 ft 485 kts 193°
2026-05-07 16:57 32.28701 114.62773 36269 ft 485 kts 193°
2026-05-07 16:57 32.21960 114.62114 36236 ft 485 kts 193°
2026-05-07 16:58 32.15224 114.61459 36270 ft 485 kts 193°
2026-05-07 16:58 32.08484 114.60806 36265 ft 486 kts 193°
2026-05-07 16:59 32.01735 114.60154 36263 ft 486 kts 193°
2026-05-07 16:59 31.94990 114.59503 36245 ft 486 kts 193°
2026-05-07 17:00 31.88242 114.58854 36259 ft 486 kts 193°
2026-05-07 17:00 31.81532 114.58208 36255 ft 487 kts 193°
2026-05-07 17:01 31.74776 114.57557 36265 ft 487 kts 193°
2026-05-07 17:01 31.68008 114.56908 36234 ft 487 kts 194°
2026-05-07 17:02 31.61247 114.56257 36240 ft 487 kts 194°
2026-05-07 17:02 31.55645 114.55714 36243 ft 485 kts 194°
2026-05-07 17:03 31.47796 114.54956 36236 ft 486 kts 194°
2026-05-07 17:03 31.41053 114.54304 36230 ft 486 kts 194°
2026-05-07 17:04 31.35404 114.53759 36230 ft 486 kts 194°
2026-05-07 17:04 31.28702 114.53107 36232 ft 485 kts 195°
2026-05-07 17:05 31.22253 114.51465 36208 ft 467 kts 207°
2026-05-07 17:05 31.16371 114.48507 36231 ft 457 kts 215°
2026-05-07 17:06 31.10649 114.45212 36226 ft 458 kts 215°
2026-05-07 17:06 31.04898 114.41952 36220 ft 460 kts 214°
2026-05-07 17:07 30.99124 114.38712 36196 ft 461 kts 214°
2026-05-07 17:07 30.93378 114.35493 36235 ft 461 kts 214°
2026-05-07 17:08 30.87536 114.32355 36251 ft 463 kts 213°
2026-05-07 17:08 30.81647 114.29292 36258 ft 463 kts 213°
2026-05-07 17:09 30.75805 114.26160 36243 ft 461 kts 214°
2026-05-07 17:09 30.70021 114.23009 36253 ft 461 kts 214°
2026-05-07 17:10 30.64205 114.19856 36251 ft 461 kts 214°
2026-05-07 17:10 30.58383 114.16712 36240 ft 461 kts 214°
2026-05-07 17:11 30.52594 114.13490 36205 ft 461 kts 214°
2026-05-07 17:11 30.46767 114.10344 36216 ft 462 kts 214°
2026-05-07 17:12 30.40926 114.07222 36225 ft 462 kts 214°
2026-05-07 17:12 30.35114 114.04102 36217 ft 463 kts 214°
2026-05-07 17:13 30.29270 114.00960 36185 ft 463 kts 214°
2026-05-07 17:13 30.23434 113.97831 36212 ft 462 kts 214°
2026-05-07 17:14 30.17577 113.94705 36223 ft 463 kts 214°
2026-05-07 17:14 30.11758 113.91605 36216 ft 463 kts 214°
2026-05-07 17:15 30.05906 113.88489 36195 ft 463 kts 214°
2026-05-07 17:15 30.00044 113.85371 36216 ft 463 kts 214°
2026-05-07 17:16 29.94175 113.82253 36219 ft 464 kts 214°
2026-05-07 17:16 29.88161 113.79519 36223 ft 476 kts 205°
2026-05-07 17:17 29.81587 113.78028 36195 ft 490 kts 194°
2026-05-07 17:17 29.74748 113.77545 36215 ft 494 kts 192°
2026-05-07 17:18 29.67874 113.77144 36220 ft 494 kts 192°
2026-05-07 17:18 29.61015 113.76698 36221 ft 494 kts 192°
2026-05-07 17:19 29.54151 113.76222 36204 ft 494 kts 192°
2026-05-07 17:19 29.47280 113.75742 36211 ft 494 kts 193°
2026-05-07 17:20 29.40411 113.75266 36218 ft 494 kts 192°
2026-05-07 17:20 29.33533 113.74791 36214 ft 495 kts 192°
2026-05-07 17:21 29.26713 113.74322 36216 ft 493 kts 192°
2026-05-07 17:21 29.19816 113.74123 36214 ft 499 kts 187°
2026-05-07 17:22 29.12864 113.74356 36207 ft 500 kts 187°
2026-05-07 17:22 29.05907 113.74594 36207 ft 500 kts 187°
2026-05-07 17:23 28.98956 113.74798 36201 ft 499 kts 187°
2026-05-07 17:23 28.92008 113.74992 36183 ft 500 kts 187°
2026-05-07 17:24 28.85047 113.75189 36196 ft 500 kts 187°
2026-05-07 17:24 28.78089 113.75376 36194 ft 500 kts 187°
2026-05-07 17:25 28.71204 113.75391 36189 ft 492 kts 192°
2026-05-07 17:25 28.64365 113.74871 36208 ft 492 kts 193°
2026-05-07 17:26 28.57528 113.74322 36200 ft 493 kts 193°
2026-05-07 17:26 28.50671 113.73810 36165 ft 494 kts 192°
2026-05-07 17:27 28.43848 113.73319 36181 ft 494 kts 192°
2026-05-07 17:27 28.36990 113.72825 36189 ft 493 kts 192°
2026-05-07 17:28 28.30128 113.72328 36187 ft 493 kts 192°
2026-05-07 17:28 28.23276 113.71828 36163 ft 493 kts 192°
2026-05-07 17:29 28.16426 113.71297 36184 ft 492 kts 192°
2026-05-07 17:29 28.09636 113.70754 36184 ft 492 kts 192°
2026-05-07 17:30 28.02801 113.70192 36181 ft 492 kts 192°
2026-05-07 17:30 27.95983 113.69578 36162 ft 491 kts 192°
2026-05-07 17:31 27.89170 113.68951 36171 ft 491 kts 192°
2026-05-07 17:31 27.82358 113.68330 36177 ft 492 kts 192°
2026-05-07 17:32 27.75535 113.67714 36173 ft 492 kts 192°
2026-05-07 17:32 27.69848 113.67200 36152 ft 492 kts 192°
2026-05-07 17:33 27.61894 113.66592 36167 ft 495 kts 189°
2026-05-07 17:33 27.54997 113.66450 36170 ft 496 kts 188°
2026-05-07 17:34 27.48097 113.66343 36169 ft 496 kts 188°
2026-05-07 17:34 27.41185 113.66205 36129 ft 496 kts 188°
2026-05-07 17:35 27.34289 113.66054 36162 ft 495 kts 188°
2026-05-07 17:35 27.27392 113.65904 36161 ft 496 kts 188°
2026-05-07 17:36 27.20518 113.65820 36160 ft 500 kts 184°
2026-05-07 17:36 27.13549 113.66861 36141 ft 511 kts 172°
2026-05-07 17:37 27.06663 113.68942 36156 ft 512 kts 171°
2026-05-07 17:37 26.99788 113.71050 36152 ft 511 kts 171°
2026-05-07 17:38 26.92914 113.73096 36159 ft 511 kts 171°
2026-05-07 17:38 26.86027 113.75120 36132 ft 511 kts 171°
2026-05-07 17:39 26.79143 113.77144 36164 ft 512 kts 171°
2026-05-07 17:39 26.72297 113.79170 36156 ft 513 kts 170°
2026-05-07 17:40 26.65418 113.81333 36155 ft 514 kts 169°
2026-05-07 17:40 26.58530 113.83523 36160 ft 514 kts 170°
2026-05-07 17:41 26.51651 113.85684 36143 ft 513 kts 169°
2026-05-07 17:41 26.44761 113.87766 36158 ft 511 kts 171°
2026-05-07 17:42 26.37852 113.89736 36148 ft 512 kts 171°
2026-05-07 17:42 26.30955 113.91704 36148 ft 512 kts 171°
2026-05-07 17:43 26.24093 113.93681 36148 ft 512 kts 171°
2026-05-07 17:43 26.17197 113.95670 36122 ft 511 kts 171°
2026-05-07 17:44 26.10296 113.97656 36141 ft 511 kts 171°
2026-05-07 17:44 26.03412 113.99638 36138 ft 511 kts 171°
2026-05-07 17:45 25.96567 114.01630 36124 ft 511 kts 170°
2026-05-07 17:45 25.89693 114.03677 36117 ft 511 kts 170°
2026-05-07 17:46 25.82820 114.05724 36099 ft 511 kts 170°
2026-05-07 17:46 25.75953 114.07761 36122 ft 511 kts 170°
2026-05-07 17:47 25.69057 114.09796 36112 ft 512 kts 170°
2026-05-07 17:47 25.62194 114.11820 36103 ft 513 kts 170°
2026-05-07 17:48 25.55286 114.13858 36092 ft 514 kts 170°
2026-05-07 17:48 25.48365 114.15896 36085 ft 514 kts 170°
2026-05-07 17:49 25.41438 114.17934 36087 ft 514 kts 170°
2026-05-07 17:49 25.34528 114.19965 36070 ft 513 kts 170°
2026-05-07 17:50 25.27671 114.21978 36089 ft 513 kts 170°
2026-05-07 17:50 25.20774 114.24000 36076 ft 513 kts 170°
2026-05-07 17:51 25.14993 114.25684 36072 ft 511 kts 171°
2026-05-07 17:51 25.08031 114.26523 36077 ft 498 kts 186°
2026-05-07 17:52 25.01280 114.25652 36072 ft 488 kts 197°
2026-05-07 17:52 24.94622 114.24126 36068 ft 488 kts 197°
2026-05-07 17:53 24.87955 114.22627 36069 ft 488 kts 197°
2026-05-07 17:53 24.81272 114.21170 36076 ft 490 kts 197°
2026-05-07 17:54 24.74629 114.19730 36078 ft 490 kts 197°
2026-05-07 17:54 24.67942 114.18295 36067 ft 489 kts 197°
2026-05-07 17:55 24.61264 114.16855 36062 ft 488 kts 197°
2026-05-07 17:55 24.54598 114.15419 36055 ft 487 kts 197°
2026-05-07 17:56 24.47936 114.13982 36065 ft 487 kts 197°
2026-05-07 17:56 24.41318 114.12558 36055 ft 487 kts 197°
2026-05-07 17:57 24.35744 114.11358 36058 ft 486 kts 197°
2026-05-07 17:57 24.28175 114.09186 36052 ft 483 kts 201°
2026-05-07 17:58 24.21705 114.07174 36039 ft 484 kts 201°
2026-05-07 17:58 24.15155 114.05155 36051 ft 493 kts 200°
2026-05-07 17:59 24.08535 114.03152 36043 ft 497 kts 200°
2026-05-07 17:59 24.01885 114.01132 36050 ft 496 kts 200°
2026-05-07 18:00 23.95240 113.99118 36033 ft 495 kts 200°
2026-05-07 18:00 23.88579 113.97100 36046 ft 497 kts 200°
2026-05-07 18:01 23.81888 113.95076 36046 ft 500 kts 200°
2026-05-07 18:01 23.75161 113.93044 36045 ft 502 kts 200°
2026-05-07 18:02 23.65075 113.89999 36031 ft 503 kts 200°
2026-05-07 18:03 23.58330 113.87969 36035 ft 502 kts 200°
2026-05-07 18:03 23.51591 113.85939 36041 ft 501 kts 200°
2026-05-07 18:04 23.44870 113.83911 36029 ft 500 kts 200°
2026-05-07 18:04 23.38166 113.81881 36034 ft 499 kts 200°
2026-05-07 18:05 23.31481 113.79858 36031 ft 498 kts 200°
2026-05-07 18:05 23.24843 113.77852 36037 ft 498 kts 200°
2026-05-07 18:06 23.18163 113.75837 36041 ft 498 kts 200°
2026-05-07 18:06 23.11486 113.73824 36041 ft 497 kts 199°
2026-05-07 18:07 23.04827 113.71819 36047 ft 496 kts 199°
2026-05-07 18:07 22.98287 113.69854 35884 ft 490 kts 200°
2026-05-07 18:07 22.94997 113.68863 35634 ft 491 kts 199°
2026-05-07 18:08 22.91696 113.67869 35247 ft 494 kts 199°
2026-05-07 18:08 22.88367 113.66869 34846 ft 498 kts 199°
2026-05-07 18:08 22.85021 113.65858 34415 ft 500 kts 199°
2026-05-07 18:08 22.81671 113.64840 34092 ft 500 kts 199°
2026-05-07 18:09 22.78327 113.63823 33812 ft 498 kts 198°
2026-05-07 18:09 22.74990 113.62808 33381 ft 499 kts 199°
2026-05-07 18:09 22.71631 113.61787 32845 ft 503 kts 199°
2026-05-07 18:09 22.68242 113.60757 32270 ft 506 kts 199°
2026-05-07 18:10 22.64843 113.59726 31722 ft 509 kts 199°
2026-05-07 18:10 22.61418 113.58688 31178 ft 512 kts 199°
2026-05-07 18:10 22.57979 113.57647 30643 ft 514 kts 199°
2026-05-07 18:10 22.54573 113.56616 30266 ft 513 kts 198°
2026-05-07 18:11 22.51159 113.55582 30084 ft 506 kts 198°
2026-05-07 18:11 22.48875 113.54884 29928 ft 503 kts 198°
2026-05-07 18:11 22.44427 113.53517 29504 ft 499 kts 198°
2026-05-07 18:11 22.41094 113.52491 29142 ft 497 kts 198°
2026-05-07 18:12 22.37768 113.51468 28788 ft 496 kts 198°
2026-05-07 18:12 22.34453 113.50451 28478 ft 494 kts 198°
2026-05-07 18:12 22.31153 113.49440 28188 ft 492 kts 198°
2026-05-07 18:12 22.27868 113.48436 27909 ft 488 kts 198°
2026-05-07 18:13 22.24541 113.47696 27549 ft 490 kts 188°
2026-05-07 18:13 22.21161 113.47645 27208 ft 493 kts 178°
2026-05-07 18:13 22.17769 113.48194 26953 ft 493 kts 168°
2026-05-07 18:13 22.14501 113.49332 26693 ft 492 kts 161°
2026-05-07 18:14 22.11289 113.50601 26422 ft 490 kts 161°
2026-05-07 18:14 22.08073 113.51834 26140 ft 488 kts 162°
2026-05-07 18:14 22.04857 113.53013 25858 ft 487 kts 163°
2026-05-07 18:14 22.01653 113.54102 25555 ft 480 kts 169°
2026-05-07 18:15 21.98336 113.54416 25126 ft 477 kts 186°
2026-05-07 18:15 21.95146 113.53767 24835 ft 471 kts 201°
2026-05-07 18:15 21.92199 113.52336 24562 ft 462 kts 209°
2026-05-07 18:15 21.89320 113.50803 24213 ft 463 kts 208°
2026-05-07 18:16 21.86417 113.49312 23648 ft 462 kts 207°
2026-05-07 18:16 21.83504 113.47856 22940 ft 459 kts 207°
2026-05-07 18:16 21.80600 113.46423 22260 ft 455 kts 207°
2026-05-07 18:16 21.77742 113.45014 21637 ft 451 kts 207°
2026-05-07 18:17 21.74899 113.43651 21008 ft 441 kts 202°
2026-05-07 18:17 21.71892 113.43001 20400 ft 442 kts 183°
2026-05-07 18:17 21.68855 113.43423 19811 ft 443 kts 166°
2026-05-07 18:17 21.66032 113.44667 19132 ft 445 kts 152°
2026-05-07 18:18 21.63557 113.46664 18494 ft 446 kts 136°
2026-05-07 18:18 21.61436 113.49081 17836 ft 443 kts 134°
2026-05-07 18:18 21.59405 113.51495 17219 ft 425 kts 128°
2026-05-07 18:18 21.58042 113.54210 16766 ft 405 kts 108°
2026-05-07 18:19 21.57548 113.57106 16261 ft 387 kts 91°
2026-05-07 18:19 21.57777 113.59938 15706 ft 380 kts 76°
2026-05-07 18:19 21.58560 113.62634 15281 ft 376 kts 67°
2026-05-07 18:19 21.59752 113.65093 14959 ft 368 kts 52°
2026-05-07 18:20 21.61494 113.67051 14443 ft 361 kts 40°
2026-05-07 18:20 21.63342 113.68896 13917 ft 363 kts 42°
2026-05-07 18:20 21.65163 113.70786 13488 ft 362 kts 43°
2026-05-07 18:20 21.66989 113.72627 13117 ft 357 kts 40°
2026-05-07 18:21 21.68834 113.74406 12926 ft 357 kts 40°
2026-05-07 18:21 21.70667 113.76168 12772 ft 359 kts 40°
2026-05-07 18:21 21.72520 113.77965 12368 ft 359 kts 40°
2026-05-07 18:21 21.74362 113.79764 12004 ft 355 kts 41°
2026-05-07 18:22 21.76174 113.81537 11719 ft 349 kts 41°
2026-05-07 18:22 21.77382 113.82719 11482 ft 346 kts 41°
2026-05-07 18:22 21.79732 113.85019 10963 ft 343 kts 41°
2026-05-07 18:22 21.81494 113.86743 10568 ft 342 kts 41°
2026-05-07 18:23 21.83322 113.88330 10117 ft 334 kts 27°
2026-05-07 18:23 21.85458 113.89041 9854 ft 313 kts
2026-05-07 18:23 21.87568 113.88918 9479 ft 298 kts 347°
2026-05-07 18:23 21.89510 113.88227 9060 ft 295 kts 334°
2026-05-07 18:24 21.91368 113.87294 8916 ft 293 kts 333°
2026-05-07 18:24 21.93173 113.86371 8880 ft 289 kts 332°
2026-05-07 18:24 21.94989 113.85445 8768 ft 288 kts 333°
2026-05-07 18:24 21.96816 113.84518 8499 ft 292 kts 333°
2026-05-07 18:25 21.98647 113.83594 7937 ft 289 kts 333°
2026-05-07 18:25 22.00450 113.82690 7452 ft 283 kts 333°
2026-05-07 18:25 22.02219 113.81806 6976 ft 277 kts 334°
2026-05-07 18:25 22.03953 113.80941 6507 ft 273 kts 334°
2026-05-07 18:26 22.05663 113.80090 6028 ft 269 kts 334°
2026-05-07 18:26 22.07349 113.79248 5538 ft 265 kts 334°
2026-05-07 18:26 22.09012 113.78418 5057 ft 262 kts 334°
2026-05-07 18:26 22.10606 113.77641 4994 ft 242 kts 339°
2026-05-07 18:27 22.12228 113.77263 4688 ft 234 kts 353°
2026-05-07 18:27 22.13809 113.77109 4408 ft 222 kts 355°
2026-05-07 18:27 22.15303 113.76977 4195 ft 210 kts 355°
2026-05-07 18:27 22.16252 113.76889 4015 ft 203 kts 354°
2026-05-07 18:28 22.18006 113.76717 3853 ft 182 kts 354°
2026-05-07 18:28 22.19251 113.76587 3768 ft 179 kts 353°
2026-05-07 18:28 22.20496 113.76451 3723 ft 182 kts 353°
2026-05-07 18:28 22.21792 113.76308 3475 ft 187 kts 353°
2026-05-07 18:29 22.23060 113.76166 3267 ft 181 kts 353°
2026-05-07 18:29 22.24303 113.76025 3043 ft 178 kts 353°
2026-05-07 18:29 22.25555 113.75884 2828 ft 180 kts 353°
2026-05-07 18:29 22.26775 113.75763 2585 ft 172 kts
2026-05-07 18:30 22.27871 113.76202 2343 ft 171 kts 46°
2026-05-07 18:30 22.28442 113.77293 2163 ft 166 kts 68°
2026-05-07 18:30 22.28931 113.78417 1940 ft 163 kts 66°
2026-05-07 18:30 22.29360 113.79530 1744 ft 160 kts 71°
2026-05-07 18:31 22.29730 113.80648 1586 ft 154 kts 72°
2026-05-07 18:31 22.30075 113.81719 1515 ft 148 kts 72°
2026-05-07 18:31 22.30415 113.82772 1318 ft 152 kts 72°
2026-05-07 18:31 22.30754 113.83824 942 ft 146 kts 72°
2026-05-07 18:32 22.31065 113.84839 749 ft 139 kts 73°
2026-05-07 18:32 22.31374 113.85820 546 ft 137 kts 71°
2026-05-07 18:32 22.31695 113.86777 395 ft 138 kts 70°
2026-05-07 18:32 22.32011 113.87757 176 ft 139 kts 72°
2026-05-07 18:33 22.32312 113.88724 38 ft 132 kts 72°
2026-05-07 18:33 22.32573 113.89527 37 ft 88 kts 70°
2026-05-07 18:33 22.32715 113.89960 37 ft 34 kts 70°
2026-05-07 18:33 22.32782 113.90165 37 ft 29 kts 72°
2026-05-07 18:34 22.32814 113.90377 37 ft 29 kts 90°
2026-05-07 18:34 22.32792 113.90580 37 ft 24 kts 101°
2026-05-07 18:34 22.32784 113.90726 37 ft 19 kts 78°
2026-05-07 18:34 22.32826 113.90862 37 ft 19 kts 70°
2026-05-07 18:35 22.32872 113.90998 37 ft 19 kts 70°
2026-05-07 18:35 22.32917 113.91135 37 ft 19 kts 71°
2026-05-07 18:35 22.32959 113.91273 37 ft 19 kts 72°
2026-05-07 18:35 22.33002 113.91411 37 ft 19 kts 71°
2026-05-07 18:36 22.33046 113.91548 37 ft 19 kts 70°
2026-05-07 18:36 22.33090 113.91680 37 ft 18 kts 70°
2026-05-07 18:36 22.33130 113.91809 37 ft 18 kts 71°
2026-05-07 18:36 22.33171 113.91936 37 ft 15 kts 71°
2026-05-07 18:37 22.33170 113.92022 37 ft 12 kts 128°
2026-05-07 18:37 22.33090 113.92062 37 ft 16 kts 160°
2026-05-07 18:37 22.32961 113.92112 37 ft 21 kts 161°
2026-05-07 18:37 22.32825 113.92161 37 ft 21 kts 161°
2026-05-07 18:38 22.32689 113.92213 37 ft 21 kts 160°
2026-05-07 18:38 22.32554 113.92264 37 ft 21 kts 161°
2026-05-07 18:38 22.32418 113.92314 37 ft 21 kts 161°
2026-05-07 18:38 22.32296 113.92358 37 ft 13 kts 162°
2026-05-07 18:39 22.32223 113.92414 37 ft 14 kts 107°
2026-05-07 18:39 22.32241 113.92513 37 ft 14 kts 73°
2026-05-07 18:39 22.32268 113.92603 37 ft 11 kts 73°
2026-05-07 18:39 22.32245 113.92674 37 ft 11 kts 141°
2026-05-07 18:40 22.32198 113.92693 37 ft 9 kts 165°
2026-05-07 18:40 22.32177 113.92699 37 ft 0 kts 165°
2026-05-07 18:40 22.32170 113.92701 37 ft 4 kts 165°
2026-05-07 18:41 22.32123 113.92714 38 ft 10 kts 165°
2026-05-07 18:41 22.32047 113.92740 39 ft 14 kts 161°
2026-05-07 18:41 22.31971 113.92771 39 ft 10 kts 158°
2026-05-07 18:41 22.31898 113.92804 37 ft 13 kts 158°
2026-05-07 18:42 22.31815 113.92838 37 ft 13 kts 161°
2026-05-07 18:42 22.31729 113.92872 37 ft 13 kts 158°
2026-05-07 18:42 22.31644 113.92906 37 ft 13 kts 162°
2026-05-07 18:42 22.31584 113.92928 37 ft 8 kts 154°
2026-05-07 18:43 22.31556 113.92972 37 ft 8 kts 95°
2026-05-07 18:43 22.31558 113.93017 37 ft 5 kts 95°
2026-05-07 18:43 22.31538 113.93049 37 ft 5 kts 142°
2026-05-07 18:43 22.31503 113.93063 37 ft 6 kts 160°
2026-05-07 18:44 22.31483 113.93070 37 ft 3 kts 162°
2026-05-07 18:44 22.31478 113.93072 37 ft 0 kts 162°